User: anonymous   Login
Location: Lima
(44.6384°N, 112.5920°W)
Time: 23:30:18
(UTC+00:00)
Language:

VELOX 1 - Orbit

View from above orbital plane
View from above orbital plane
View from above satellite
View from above satellite

Ground track
Ground track

The orbit data is extracted from the following two-line orbital elements,

1 40057U 14034E   24109.50394106  .00008446  00000-0  99204-3 0  9991
2 40057  98.3502 321.8038 0008719 342.5893  17.5021 14.85152717528843
Epoch (UTC): 18 April 2024 12:05:40
Eccentricity: 0.0008719
inclination: 98.3502°
perigee height: 607 km
apogee height: 619 km
right ascension of ascending node: 321.8038°
argument of perigee: 342.5893°
revolutions per day: 14.85152717
mean anomaly at epoch: 17.5021°
orbit number at epoch: 52884

The dashed part of the orbit path shows where the satellite is in the earth's shadow,  

DLR